Showing default

DASH 1, 589

Orbit data source: Space-Track

DASH 1, 589 is a payload satellite owned by USAF SSD (US) in LEO that was launched on Thu, 09 May 1963 UTC via an ATLAS AGENA B launch vehicle from the Air Force Western Test Range (AFWTR). Payload-class satellites include a variety of spacecraft equipped with specific instruments for various scientific and technological missions. These include communications satellites like Starlink; space stations such as the ISS; scientific satellites like the Hubble; Earth observation satellites from companies like Planet Labs, Umbra, and HawkEye 360; GPS; miniature CubeSats for education and research; and military/defense satellites.

Loading next visibility...
Identifier
589, 1963-014D
Orbit
LEO
Country
Flag of USUS
Related business
Manufacturer
MITLL?
Mission
Spacecraft
Bus & Motor
DASH, Unknown motor
Mass
1 kg wet, 1 kg dry
Launch date (UTC)
1963-05-09 (62 years ago)
Launch vehicle
ATLAS AGENA B
Launch site
Air Force Western Test Range (AFWTR)
Object type
Payload
Rocket body
Debris
Shape & HBR
Unknown
Radar Cross Section
Large (>1 m²)

Expand to show TLE details & history
Last TLE update: 10 hours ago

TLE from 10 hours ago
0 DASH 1
1   589U 63014D   25308.70588954 -.00000005  00000-0 -35594-2 0  9995
2   589  87.3459 211.7823 0073360 201.1910 158.5899  8.65625164974397
Epoch: 2025-11-04T16:56Z
TLE epoch observation values (Epoch: 2025-11-04T16:56:28.856Z)
Latitude
-0.00002°
Longitude
-86.527°
Altitude
3,712.119 km
Speed
6.264 km/s
True Right ascension
14h 07m 07s
True Declination
0° 00' 00"
Sunlit
Object was in daylight at epoch
Visualization orbit readout
Latitude
Unknown
Longitude
Unknown
Altitude
Unknown
Speed
Unknown
Apparent Right ascension
Unknown
Apparent Declination
Unknown
Sunlit
N/A
Visualization observer readout
Local Sidereal Time
22:46:18
Azimuth
Unknown
Elevation
Unknown
Doppler factor
Unknown
Orbital elements
Apogee altitude
3,712.732 km
Perigee altitude
3,565.757 km
Semi-major axis
10,017.381 km
Eccentricity
0.00734
Inclination
87.3459°
RAAN
211.7823°
Arg. of periapsis
201.191°
True anomaly
158.89417°
Mean anomaly
158.5899°
Eccentric anomaly
158.74229°
Mean motion
2.16477 °/min
Orbital period
166.3 mins
BSTAR
-0.0035594
Loading maneuver chart data...
Computing Atmospheric mass density...

Documentation

Showing up to 5 results
|